Wind_Speed
25 25 25 24 24 24 23 23 22 22 22 21 21 20 20 19 19 19 18 18 17 16 15 15 16 17 17 18 18 17 16 14 13 11 11 10 11 10 10 10 10 11 10 10 10 10 9 8 8 7 6 4 2 5 12 18 22 26 28 31 34 35 36 35 34 33 31 32 34 36 36 37 37 36 36 37 35 33 31 31 30 28 26 25 23 22 22 23
27 26 26 26 26 25 25 25 25 25 24 24 23 23 22 21 21 20 20 20 19 19 17 16 16 17 17 18 19 19 18 16 15 13 11 9 10 10 9 9 10 10 10 9 9 8 8 7 8 8 7 6 5 4 7 13 19 26 29 31 33 34 35 35 34 32 30 30 31 33 33 33 34 34 34 35 36 33 32 32 30 28 27 26 25 24 23 22
28 28 28 28 28 28 28 28 27 27 27 26 26 26 25 24 24 23 22 22 21 21 20 19 17 17 18 18 19 20 20 18 16 16 14 10 9 9 9 9 9 10 10 10 9 8 7 7 7 8 8 8 8 8 7 8 13 22 29 32 33 33 34 33 31 28 27 28 29 29 30 30 30 31 30 30 32 33 32 31 30 29 27 25 24 24 23 22
31 31 31 31 31 31 31 30 30 30 30 29 29 29 28 27 27 26 25 24 23 23 22 21 20 19 18 18 20 21 23 20 17 18 16 13 11 10 10 9 9 10 10 11 10 9 8 7 7 8 8 9 10 10 10 10 9 14 23 31 35 35 33 32 29 26 26 29 29 29 29 29 29 28 27 26 27 28 29 29 28 27 26 25 24 23 23 23
34 34 34 34 34 34 34 34 33 33 32 32 32 31 31 30 30 29 28 27 26 25 24 24 22 22 20 20 21 22 25 22 19 20 17 16 15 13 11 10 9 10 10 11 11 11 10 9 9 8 9 10 10 11 12 12 11 10 15 25 33 37 34 30 27 24 25 27 27 27 26 26 26 24 22 21 22 23 24 24 24 24 24 23 23 23 22 22
36 36 37 37 37 36 36 36 36 35 35 34 34 33 33 32 31 31 30 29 27 26 25 25 24 24 23 22 22 23 26 25 22 23 20 18 19 17 14 12 11 11 11 12 12 12 12 11 11 10 10 10 11 12 13 14 14 12 11 16 26 34 34 31 28 25 25 26 25 24 23 23 21 20 19 18 18 18 18 19 20 21 21 21 22 22 21 20
38 38 38 38 38 38 38 38 37 37 36 36 35 34 34 33 32 31 31 30 29 28 26 26 25 25 24 23 23 24 27 29 26 24 23 21 22 21 18 15 14 13 13 13 13 13 13 13 13 12 11 11 12 13 14 15 15 15 12 10 16 26 32 32 30 27 26 26 25 22 21 21 19 18 17 16 16 15 16 17 18 19 20 20 21 21 21 20
39 39 39 39 39 39 39 39 38 38 37 37 36 36 35 35 34 33 33 32 31 30 29 28 27 26 25 25 25 25 27 31 30 25 25 25 23 23 22 19 17 16 15 15 15 15 14 14 14 14 13 12 12 13 14 15 15 15 13 9 7 15 23 28 28 26 24 22 21 20 19 18 17 17 16 16 16 15 16 17 18 19 19 20 20 20 20 19
41 41 41 41 41 41 41 41 41 41 40 40 39 39 38 37 37 36 36 35 34 33 32 31 30 29 28 27 26 26 26 30 31 28 27 28 26 24 25 23 21 19 17 17 17 16 16 16 15 15 15 14 13 13 13 14 14 14 13 11 6 7 13 18 22 24 22 19 18 19 18 16 16 16 15 16 16 16 17 18 18 18 18 19 19 18 17 15
44 44 44 44 45 45 44 44 44 44 44 43 43 43 42 41 41 40 39 39 38 37 36 35 34 32 31 30 29 28 28 30 31 30 29 30 28 27 27 26 24 22 20 19 18 18 18 18 17 15 15 15 14 13 12 13 13 13 12 11 8 6 6 9 13 17 18 17 17 17 17 16 16 16 15 15 16 17 17 17 17 17 17 17 16 15 14 13
46 46 46 46 46 46 46 46 46 46 46 46 46 45 45 44 44 43 42 42 41 41 40 39 38 37 35 34 32 31 31 32 31 31 31 31 30 29 29 29 27 26 24 21 20 20 20 20 19 17 16 16 15 14 13 12 12 13 12 11 10 7 5 5 6 9 12 14 16 15 15 16 16 15 14 14 14 14 14 14 14 14 14 14 14 14 14 13
46 46 46 47 47 47 47 47 47 47 47 47 47 47 46 46 45 45 44 44 44 43 43 42 41 41 39 38 36 34 34 34 33 33 32 33 33 31 30 30 30 29 28 25 22 21 21 21 21 20 18 17 16 15 14 13 12 12 12 10 10 9 7 5 4 6 9 12 13 13 15 17 15 12 11 11 10 10 10 11 12 13 13 14 14 14 14 13
48 48 49 49 49 50 50 50 50 50 50 50 50 50 49 49 48 47 47 46 46 45 44 44 44 43 42 41 41 38 38 37 36 36 35 34 35 34 32 31 31 31 31 29 25 23 22 23 23 22 21 19 18 17 16 15 12 12 12 11 10 9 8 6 5 5 7 9 11 12 14 16 14 11 10 10 9 10 10 11 13 14 14 14 13 13 13 11
51 52 52 52 53 53 53 54 54 54 54 54 53 53 53 53 52 51 51 50 49 48 47 47 46 46 45 44 44 42 41 40 39 39 38 37 37 38 36 33 32 32 33 32 29 26 24 24 24 24 23 21 21 19 17 16 14 12 11 11 11 9 8 6 5 4 6 7 8 11 13 14 13 10 10 10 10 11 11 12 13 13 13 12 11 12 12 11
53 54 54 54 55 55 55 55 55 56 56 56 55 55 55 55 55 55 54 54 53 52 51 50 50 50 48 47 47 46 45 43 42 42 41 40 39 40 39 36 34 33 34 34 32 30 26 24 25 25 25 24 24 22 19 18 16 14 12 10 11 10 8 7 6 4 4 6 7 8 11 12 11 10 10 11 11 11 10 11 12 12 12 11 12 13 12 11
52 52 52 52 52 52 52 52 53 53 53 53 53 53 53 53 54 54 54 54 54 54 54 53 53 53 52 51 50 50 49 46 45 45 44 43 43 42 42 40 38 36 35 35 34 33 29 26 26 26 25 25 26 24 23 21 17 15 14 11 10 10 9 8 8 6 5 5 6 7 9 11 10 9 10 10 11 10 10 11 12 12 13 12 13 14 13 11
48 47 46 46 46 46 46 46 46 47 47 47 47 47 47 47 47 48 48 49 49 50 50 52 53 53 54 54 53 53 53 50 48 48 47 46 45 45 45 44 42 39 38 37 36 35 33 30 28 27 26 26 27 27 28 24 17 16 16 13 11 10 10 9 8 7 6 5 5 6 8 10 10 9 10 10 10 10 10 11 13 13 13 13 14 15 13 12
43 41 40 40 40 40 40 40 41 41 41 41 41 40 41 41 40 40 42 41 41 42 43 45 47 48 51 53 53 54 56 54 52 51 50 49 48 48 47 47 45 43 41 39 38 38 36 34 31 28 27 27 29 31 31 24 18 19 19 16 13 11 10 9 8 7 6 6 5 5 7 10 11 11 11 10 10 10 11 12 11 12 12 13 14 14 14 13
39 38 37 37 37 37 38 38 38 38 38 38 38 38 38 38 37 38 39 37 37 38 38 40 41 40 43 47 49 51 54 55 55 54 54 52 52 51 50 49 48 47 45 43 42 40 39 36 33 31 30 30 31 32 32 26 21 23 21 18 16 14 12 10 10 8 6 5 5 4 6 8 10 11 11 11 10 11 11 11 11 11 13 15 15 16 16 16
37 37 37 37 37 38 39 39 39 39 38 37 38 38 38 38 37 38 39 37 37 37 37 38 39 37 37 40 42 44 47 50 53 55 55 55 55 54 53 52 50 49 48 47 45 43 41 38 34 35 35 33 32 32 32 28 25 25 24 21 19 17 15 12 11 10 7 6 5 4 4 6 9 11 11 10 11 11 12 12 13 14 16 17 17 17 17 17
37 37 37 38 38 38 39 40 40 40 40 39 39 38 39 39 36 36 38 37 37 36 37 38 39 39 37 37 39 38 40 43 46 49 53 56 56 56 55 54 53 52 52 50 47 44 41 39 38 40 40 37 35 33 32 30 27 27 27 24 21 19 18 15 13 12 10 7 6 5 3 6 9 11 11 11 11 11 13 14 15 15 16 16 16 15 15 16
37 37 37 38 37 38 39 40 40 40 40 40 40 39 39 39 36 35 35 35 35 32 34 35 36 39 38 36 38 37 38 39 38 41 47 51 54 56 57 56 56 55 54 52 50 47 43 42 45 45 44 41 37 34 32 30 29 29 29 26 24 22 21 19 17 14 11 9 8 6 4 6 9 11 12 12 13 13 14 15 15 14 13 13 13 13 13 13
37 38 39 39 38 38 38 40 40 40 40 41 41 40 40 39 37 36 34 35 36 31 30 32 32 36 38 36 36 37 39 38 36 37 40 43 48 51 54 57 58 57 56 54 53 51 47 47 50 49 48 44 40 36 33 31 30 29 30 29 27 25 24 22 20 17 14 12 10 9 7 6 9 12 13 13 15 15 16 16 15 14 13 12 11 11 10 10
38 40 40 40 40 39 38 40 40 39 40 40 41 42 40 39 38 37 35 35 38 36 30 31 34 35 36 36 34 36 39 38 37 38 37 38 41 44 49 54 56 58 58 58 56 53 51 52 52 51 49 47 44 40 35 32 31 30 31 32 31 28 27 26 24 20 17 14 14 12 10 9 10 12 14 14 15 16 16 16 16 14 13 12 12 11 10 10
40 41 42 43 42 41 40 41 41 40 40 40 42 43 40 39 39 38 37 35 39 41 34 32 37 39 36 35 34 34 35 36 40 39 37 38 38 37 41 46 51 56 59 59 58 55 55 55 54 52 50 50 48 44 39 36 33 32 31 34 35 31 29 29 26 24 20 18 17 15 12 11 11 11 13 15 16 17 16 16 17 16 14 14 14 13 11 10
42 42 44 44 44 44 42 41 43 41 40 42 44 43 40 40 39 39 38 35 38 43 40 36 40 42 40 37 36 34 33 35 40 39 37 40 39 35 36 39 44 50 55 58 59 58 58 58 57 54 53 52 51 47 44 40 37 34 33 36 39 35 31 31 30 26 23 23 21 17 15 14 13 13 13 15 16 17 17 16 17 17 16 15 15 14 13 13
45 43 45 46 46 47 46 44 44 43 42 44 46 43 42 42 40 40 39 36 38 43 43 42 44 44 42 40 39 39 36 36 38 38 38 39 39 38 37 38 39 43 48 53 56 58 61 61 59 57 56 54 52 50 48 45 40 38 38 39 40 40 36 34 33 29 26 27 24 19 18 15 14 15 14 14 15 16 17 17 17 18 17 17 16 16 16 15
47 45 46 48 48 48 50 49 46 46 46 47 48 46 44 44 42 42 40 36 38 42 43 45 47 46 45 43 43 43 41 38 37 38 38 37 39 40 39 39 39 39 41 45 51 57 61 62 60 59 58 55 54 53 52 50 44 43 44 42 41 43 41 37 35 31 29 29 26 22 20 17 16 17 15 14 15 16 18 19 19 18 17 17 17 18 18 17
49 48 48 50 50 50 53 54 50 49 50 50 51 49 48 47 45 45 42 38 41 45 44 45 47 48 47 44 45 46 44 42 41 39 38 36 37 40 40 40 40 39 38 39 44 53 58 61 62 61 59 57 57 56 56 54 48 48 49 45 43 44 44 41 37 33 32 30 27 24 23 20 19 18 17 16 16 18 20 20 19 19 18 18 19 19 19 19
52 51 50 52 53 53 55 56 54 54 54 53 53 52 51 50 49 48 42 39 45 49 46 46 48 50 49 46 46 48 47 46 45 42 40 40 38 39 41 40 40 41 40 37 39 46 53 59 61 62 61 61 61 60 59 56 53 53 52 48 46 45 45 45 40 36 33 29 27 26 25 24 22 20 19 19 19 20 19 19 20 20 20 20 20 20 20 20
56 54 54 55 57 58 58 58 57 58 58 55 55 55 53 52 52 48 43 45 50 51 50 51 51 50 49 48 48 48 48 49 49 45 42 43 42 39 40 40 39 41 41 39 38 41 47 52 57 61 63 63 63 62 61 60 57 57 54 52 51 48 47 47 44 40 33 27 27 28 28 27 24 24 23 22 22 21 20 20 21 21 22 22 22 22 22 21
61 59 59 59 60 62 64 61 59 61 61 59 58 57 56 55 52 47 46 51 54 53 54 55 52 50 49 50 50 50 49 50 50 48 45 46 45 42 41 40 39 40 40 41 42 40 41 45 52 57 61 63 64 64 63 62 61 59 57 56 55 51 49 48 46 42 35 30 30 32 31 28 27 29 29 26 25 24 23 22 21 22 23 24 24 25 24 23
66 65 65 64 63 65 67 67 64 64 64 63 61 60 60 57 51 48 51 55 56 58 60 58 54 52 50 50 52 52 51 50 51 51 48 48 48 46 45 44 41 40 41 42 44 42 40 41 45 51 57 62 64 65 65 65 64 63 62 60 57 54 52 48 46 45 41 36 36 37 36 31 28 32 33 30 29 29 27 25 23 24 24 23 24 24 23 24
71 70 71 71 70 68 70 71 70 68 68 68 66 64 63 58 53 54 57 59 61 64 65 62 58 56 53 52 54 55 54 53 54 55 51 49 50 49 48 49 45 42 43 44 42 42 42 40 41 46 52 57 61 65 66 67 68 66 65 64 61 58 55 51 49 48 47 44 42 42 38 33 31 34 37 36 34 33 31 28 26 26 25 24 24 24 23 25
76 75 76 77 76 74 74 75 75 74 73 72 71 69 65 60 59 61 62 63 66 68 69 68 63 59 58 56 55 57 58 58 58 59 54 50 51 51 51 52 51 47 45 44 42 42 42 41 42 45 47 51 55 61 66 67 68 68 67 66 63 59 56 55 52 51 51 51 47 43 39 36 35 38 41 39 36 36 34 31 30 28 26 25 25 26 25 26
80 80 81 82 81 80 79 80 80 80 79 78 76 72 67 66 67 68 68 68 70 70 73 73 69 64 63 62 60 59 60 61 62 62 58 54 52 52 53 54 54 52 49 47 45 43 42 42 44 45 45 47 49 54 62 64 66 69 69 66 64 61 61 60 58 56 57 54 50 46 42 39 39 41 42 39 36 37 36 35 34 31 29 28 27 28 28 28
83 84 86 86 86 85 85 84 84 85 84 83 80 76 73 74 74 74 74 75 75 75 76 75 74 71 68 67 66 64 62 64 65 65 62 59 55 53 55 56 56 56 54 52 50 47 45 43 45 45 44 45 46 49 55 60 63 68 69 67 67 68 66 64 63 62 59 55 51 50 47 43 42 43 43 41 38 37 38 38 38 35 33 32 31 31 31 31
86 87 90 91 90 89 88 88 88 89 89 87 83 80 79 79 79 80 80 81 81 81 79 77 77 77 75 73 72 71 70 67 67 67 66 63 59 56 57 57 58 58 58 58 55 53 50 46 45 45 44 45 46 45 47 53 59 64 68 70 72 72 69 67 66 64 60 56 55 55 51 46 44 43 43 44 41 40 40 40 40 38 36 36 34 34 34 34
89 90 94 96 94 92 92 91 92 92 92 89 86 84 84 83 84 85 85 85 85 85 83 81 81 82 81 79 77 77 77 74 71 70 69 67 64 61 59 59 60 60 61 62 59 58 57 51 47 45 44 45 47 44 42 46 54 61 67 70 72 72 70 70 69 66 63 61 60 60 54 48 46 45 46 47 46 45 44 42 42 40 38 40 39 37 37 37
93 94 98 100 99 97 96 95 95 95 94 92 90 89 89 88 89 89 88 88 88 88 87 85 86 85 84 84 83 82 83 82 78 75 72 70 68 66 64 62 62 62 63 64 63 62 61 56 51 49 47 44 44 42 42 44 49 55 61 65 68 71 72 73 73 70 67 66 64 62 55 49 48 49 50 51 50 50 48 44 43 43 41 43 42 40 40 39
97 98 101 105 104 102 101 100 99 98 98 97 96 95 95 94 94 93 93 93 92 91 90 89 89 89 87 87 88 87 88 87 85 82 78 74 71 70 68 66 64 64 65 65 64 64 64 61 58 56 51 45 43 43 44 45 47 49 54 59 63 68 72 75 76 72 69 68 67 65 58 52 52 53 54 55 54 54 52 47 46 46 45 45 44 43 43 42
101 101 105 109 110 107 106 105 104 104 103 101 101 101 100 100 99 98 98 98 96 95 95 94 92 92 92 92 91 92 93 92 90 87 83 80 76 73 72 71 69 67 68 67 65 65 67 66 61 58 55 49 46 46 44 44 46 48 49 52 58 64 68 73 75 73 71 71 71 70 64 57 55 57 58 58 58 58 55 51 48 48 49 48 47 46 46 45
105 105 108 114 115 112 110 109 109 109 108 106 106 106 106 104 103 102 102 103 102 100 100 99 96 96 96 96 96 96 97 97 94 91 89 86 83 79 76 76 74 71 70 69 67 66 68 69 65 61 60 56 51 48 46 44 45 46 45 48 53 58 62 68 73 75 74 74 75 74 67 60 59 60 61 62 62 61 58 54 51 51 53 53 51 50 48 48
109 109 112 117 119 118 114 113 113 114 114 113 111 111 110 109 108 107 107 107 106 106 105 104 102 102 101 101 101 101 101 100 98 96 95 92 89 86 81 79 79 77 73 71 71 70 69 70 69 66 63 61 55 48 45 45 44 44 44 46 50 54 58 64 69 75 77 76 77 77 70 63 62 65 65 65 64 63 61 57 55 56 57 56 56 54 50 49
113 113 115 120 123 122 119 117 117 119 119 118 117 115 115 114 113 113 113 112 111 111 110 109 108 108 109 108 107 105 104 104 102 100 100 96 93 91 88 84 83 82 78 74 74 74 72 70 71 70 65 62 59 53 49 48 47 46 47 47 48 51 56 60 64 71 76 75 77 79 73 68 68 70 69 67 66 65 63 62 61 61 60 58 59 59 53 51
117 117 119 122 125 125 124 122 122 123 123 122 121 119 118 118 118 118 117 116 116 115 115 114 114 115 116 115 112 109 108 108 107 105 104 101 99 97 95 91 87 85 82 79 78 78 77 74 71 70 68 65 64 62 60 57 51 49 47 47 48 49 52 57 62 66 70 72 76 79 76 73 73 73 71 70 70 68 67 68 66 63 63 62 61 61 57 54
121 121 122 124 127 127 128 127 127 127 127 126 125 123 122 122 121 122 122 122 122 121 120 120 120 121 120 119 117 114 113 113 112 110 108 106 104 102 100 97 92 89 86 83 82 82 82 78 72 70 70 69 67 67 67 64 57 49 47 46 49 50 50 53 57 59 62 68 73 76 76 76 76 75 75 74 74 74 73 72 69 66 66 67 64 61 61 60
126 126 127 128 129 130 132 133 133 132 132 131 130 128 126 125 125 126 128 128 128 127 126 126 125 124 123 122 121 119 117 116 116 114 111 108 106 103 102 101 97 94 91 88 86 87 86 82 76 72 72 71 71 70 69 68 63 53 48 47 50 51 48 49 52 54 58 64 67 69 74 76 75 76 78 79 78 77 77 76 72 69 69 69 68 65 65 64
131 131 132 132 133 133 135 137 137 137 136 135 134 133 131 130 130 131 132 133 134 133 132 132 130 128 126 125 125 124 122 120 119 117 113 109 106 104 103 103 100 98 96 92 90 90 89 85 81 77 73 72 73 71 70 70 68 59 51 48 48 50 48 47 49 52 56 59 60 63 70 75 74 75 80 84 83 81 80 79 76 73 72 72 70 68 67 67
135 135 135 135 136 136 137 139 140 141 140 139 138 138 136 134 134 135 136 137 137 138 137 136 133 131 129 129 129 128 126 124 122 120 117 112 109 107 105 104 103 101 99 96 93 92 90 87 85 81 77 75 72 72 73 73 70 65 57 48 46 48 49 47 47 50 54 56 57 59 65 70 72 73 78 85 87 84 82 81 79 78 76 73 71 71 70 69
133 133 132 132 133 133 133 135 136 137 138 138 138 138 137 137 136 136 138 139 139 140 140 138 135 134 133 132 132 131 129 127 125 123 121 116 113 111 109 107 106 105 102 100 97 95 92 89 87 84 82 76 72 74 75 74 75 71 59 47 44 48 51 49 46 48 51 56 59 58 59 63 68 71 74 80 85 86 85 85 84 82 79 74 73 75 74 72
119 119 118 117 117 117 118 119 120 121 123 124 125 126 127 128 128 129 131 134 136 137 138 138 137 136 136 136 136 135 133 131 128 125 123 120 116 115 113 111 110 109 106 103 101 98 96 92 88 87 84 78 76 77 77 80 80 67 50 47 50 53 54 51 48 49 53 57 59 57 55 58 64 69 71 74 79 85 87 88 88 86 82 78 76 79 79 76
Wind_Direction
267 267 268 269 269 270 271 271 272 273 275 276 279 281 283 285 287 289 291 293 294 296 298 302 306 310 313 316 319 322 325 331 338 346 352 357 2 8 12 14 16 15 18 31 42 44 46 44 38 36 43 46 356 259 246 240 237 238 240 240 240 241 243 245 246 247 251 256 256 256 256 259 263 267 266 262 260 261 261 261 262 261 260 262 264 266 269 271
267 268 269 270 271 271 272 273 273 274 275 276 277 278 279 280 281 283 285 287 288 290 291 293 295 299 303 306 308 311 313 317 323 327 332 342 347 351 357 359 1 2 2 7 22 34 39 35 28 23 19 21 16 341 278 255 242 239 239 240 241 242 243 244 246 249 252 255 257 258 259 262 264 266 266 261 258 260 261 260 261 261 260 261 263 264 265 268
268 269 270 270 271 272 272 273 274 275 276 276 277 277 277 278 278 279 279 281 282 284 285 286 287 289 293 296 298 300 302 306 313 311 314 325 332 335 340 344 346 348 347 348 355 6 19 23 20 16 11 5 359 358 341 302 262 247 240 239 240 240 242 242 243 249 254 256 258 260 263 266 267 266 264 262 257 257 260 259 258 259 259 260 261 261 261 265
270 270 271 271 272 272 273 273 274 275 275 276 276 277 277 278 277 277 277 278 278 279 280 280 280 280 282 285 288 291 292 298 302 299 305 313 315 318 322 328 332 335 336 335 338 342 349 358 4 5 4 3 358 354 350 341 312 271 249 240 237 237 239 240 242 248 255 257 260 264 268 269 268 266 262 260 257 255 256 256 255 255 256 256 256 257 259 264
271 272 272 273 273 273 274 274 274 274 275 275 276 276 277 277 278 277 276 276 276 276 276 277 277 276 275 276 279 282 284 289 291 291 298 302 301 304 306 312 316 321 325 325 326 328 332 336 344 352 354 356 356 354 350 349 345 314 269 248 239 237 237 238 241 247 255 259 263 268 272 270 266 262 258 256 253 251 251 251 250 251 252 253 254 256 259 262
271 272 273 273 274 274 274 275 275 275 275 275 276 276 276 277 277 278 277 276 275 274 273 273 273 273 272 271 272 274 278 281 280 284 292 293 293 295 295 300 302 306 312 314 317 319 322 325 329 335 343 348 351 354 353 353 356 346 307 265 246 239 237 239 242 246 253 259 265 269 271 270 265 259 254 251 249 246 244 244 245 247 249 252 254 257 258 259
272 272 273 273 274 274 274 274 274 275 275 275 275 275 275 275 276 276 276 276 275 274 273 272 271 271 270 268 268 269 273 276 275 279 285 285 285 287 290 291 291 296 300 302 306 310 313 316 320 324 330 339 345 352 354 354 359 359 344 297 256 241 236 239 243 249 257 263 266 265 263 263 260 255 250 247 246 242 241 242 243 246 250 253 255 255 255 255
271 271 271 272 272 272 272 273 273 273 273 273 273 273 273 273 273 273 274 274 274 273 272 271 270 269 269 267 266 265 268 272 274 275 276 276 278 282 284 284 284 286 289 293 296 299 304 307 313 317 322 330 337 345 351 353 358 2 360 342 284 248 241 242 245 252 259 263 261 255 253 254 251 250 249 246 247 243 243 244 244 247 249 251 252 251 251 252
269 270 270 270 270 270 271 271 271 271 271 271 271 271 271 270 270 271 270 271 271 271 270 269 268 267 267 266 266 264 264 268 272 272 271 272 274 275 276 277 278 278 280 284 288 291 295 298 304 309 314 319 326 335 343 349 355 1 4 358 332 272 257 254 253 254 255 254 252 246 246 248 247 247 248 247 248 246 245 244 244 244 244 246 247 245 246 248
269 270 270 270 270 270 270 270 270 270 270 270 270 270 269 269 269 269 269 269 268 268 268 267 266 265 264 264 263 263 263 264 267 270 270 270 270 269 271 273 274 274 274 275 279 285 288 291 295 300 305 309 314 323 331 341 347 355 5 3 349 315 281 267 255 250 245 242 241 242 244 247 245 243 242 242 243 243 241 241 240 239 238 239 241 238 238 239
268 269 269 269 269 269 269 269 269 269 269 269 269 268 268 268 267 267 267 267 267 266 266 265 265 264 262 261 260 259 261 262 263 265 267 268 268 268 268 270 271 271 270 270 272 277 282 285 288 292 296 300 305 311 317 329 339 345 355 3 359 345 319 291 262 244 235 234 237 243 247 246 240 234 232 230 231 233 233 234 235 234 233 231 232 233 230 227
268 268 268 268 268 268 268 268 268 268 268 268 268 267 267 267 266 266 265 265 265 265 264 264 263 262 261 260 258 256 257 258 259 261 263 266 267 266 265 267 268 269 268 268 267 269 274 279 283 287 289 292 297 301 306 314 327 336 342 352 359 355 342 323 289 257 242 240 241 243 243 239 231 224 220 216 217 222 224 226 227 227 226 223 224 227 225 223
270 270 270 270 270 270 270 269 269 269 268 268 268 267 267 266 266 265 264 264 263 263 263 263 262 261 260 259 257 255 254 254 255 257 258 261 264 265 263 264 266 267 268 267 265 265 267 272 277 281 284 287 291 292 297 303 311 323 331 339 349 356 352 332 295 270 254 248 242 237 234 228 220 215 211 207 208 213 217 219 221 222 221 220 222 226 225 224
271 272 272 272 272 272 272 272 271 271 270 270 270 269 269 268 267 266 265 264 263 262 261 261 261 260 259 258 257 255 252 252 252 252 254 256 259 262 262 261 262 265 266 266 265 263 262 266 271 275 278 283 284 284 287 292 297 306 317 328 335 346 354 343 313 278 260 256 245 234 229 222 212 206 207 207 206 208 214 218 219 220 220 221 226 230 227 219
272 273 273 273 273 273 273 273 273 273 272 272 272 271 271 270 270 269 268 266 265 264 262 261 260 259 258 257 257 255 252 251 250 250 250 252 253 257 260 260 258 260 263 265 265 264 261 262 265 269 273 277 278 280 281 282 286 293 301 314 323 330 341 343 334 312 273 262 253 238 231 224 212 204 208 209 208 208 212 221 222 223 222 221 225 225 214 201
273 273 273 274 274 274 274 274 274 274 274 274 274 274 273 273 272 272 271 269 268 266 265 263 261 259 258 257 256 256 254 251 250 249 248 248 250 252 255 257 257 257 259 262 264 264 262 260 260 263 266 269 273 277 277 275 278 284 291 298 311 320 325 332 337 337 321 288 264 247 234 227 217 206 205 206 208 209 213 224 227 227 222 216 216 211 193 177
272 272 273 273 274 274 275 275 275 275 276 276 276 276 276 275 275 275 274 273 272 270 268 266 264 262 260 258 256 255 255 252 250 249 248 247 247 248 250 253 254 254 255 258 261 262 261 258 256 257 259 263 268 271 270 270 274 280 284 287 295 305 310 318 327 332 331 315 286 259 235 224 218 209 203 200 204 209 215 223 226 223 215 206 203 194 176 163
271 271 272 273 274 275 275 276 277 277 278 278 279 279 280 280 279 279 278 277 276 275 273 271 268 266 264 261 258 255 255 253 252 250 249 247 246 246 247 249 251 252 252 254 256 258 259 258 256 257 256 257 259 262 265 268 273 275 275 278 282 286 293 300 304 313 325 317 296 270 240 222 216 211 202 198 204 210 213 212 211 208 197 187 181 170 157 153
271 271 271 273 274 275 276 276 277 278 279 280 281 282 283 283 284 284 283 283 282 281 279 277 274 271 269 266 262 259 256 254 253 251 249 248 247 246 246 246 248 249 250 250 252 255 257 258 259 257 254 251 252 256 262 266 268 270 269 270 273 275 280 285 288 294 306 310 299 276 246 224 215 209 200 196 200 205 202 190 178 173 165 158 152 146 142 144
271 271 272 272 273 275 275 276 276 277 278 279 280 282 282 283 285 285 285 286 285 285 284 283 280 277 274 272 268 264 261 257 254 252 251 249 247 246 245 245 245 247 248 248 249 251 254 258 259 256 252 249 249 252 257 261 262 264 265 264 265 267 271 273 278 280 282 293 296 281 240 215 206 197 192 190 193 197 188 166 153 150 146 143 141 139 139 142
270 271 271 272 272 274 275 275 275 275 276 277 278 280 281 282 283 284 286 287 285 285 285 283 283 281 277 277 274 270 267 263 258 255 253 250 248 247 246 245 245 245 245 246 247 248 251 255 254 252 250 248 246 247 251 255 256 258 261 261 260 261 263 264 266 268 270 273 277 279 234 199 194 185 183 186 186 188 179 161 150 148 146 146 147 147 149 151
271 271 271 271 271 272 273 273 273 274 275 276 276 277 278 280 282 283 286 287 285 285 284 283 283 282 279 278 278 277 273 269 264 260 256 253 250 248 246 245 244 244 244 244 245 245 246 248 249 249 250 248 246 246 247 249 251 254 258 259 259 258 257 258 258 257 261 262 258 262 245 202 192 188 188 192 191 186 178 169 160 156 157 158 160 162 164 166
270 271 270 270 269 270 271 273 273 274 275 275 276 275 275 277 279 280 282 285 285 283 283 285 283 280 280 279 279 280 277 274 271 267 261 257 253 250 248 246 244 244 244 243 243 243 243 244 247 249 251 251 249 246 245 247 248 249 254 257 255 254 254 253 252 251 252 255 252 247 242 221 202 199 199 196 194 189 182 179 176 171 171 175 179 180 181 183
269 271 272 271 271 270 272 274 275 276 276 277 277 275 274 276 277 277 278 281 284 282 281 285 283 280 280 280 279 278 278 279 276 271 267 263 258 253 250 248 245 244 243 242 242 242 242 242 245 248 250 252 252 249 245 245 246 244 247 253 252 250 251 250 248 247 246 247 248 241 235 230 214 207 206 202 197 193 190 190 190 186 186 191 196 197 198 197
270 272 273 273 273 272 272 274 275 275 276 277 276 275 275 275 274 275 275 277 281 281 281 282 281 280 280 281 280 278 279 278 275 274 274 270 264 257 254 251 247 244 242 242 241 240 241 242 242 245 247 250 250 249 245 241 241 241 241 246 250 247 247 248 245 243 244 243 242 239 232 229 226 216 210 209 204 198 198 202 201 198 199 205 206 206 207 207
270 272 273 274 274 274 272 273 274 274 275 275 275 275 275 274 274 274 274 275 276 278 282 280 276 278 281 283 283 280 277 274 276 278 276 274 271 265 260 255 249 246 244 242 241 240 240 241 241 241 243 246 248 249 246 241 238 240 237 239 246 247 243 245 243 238 240 243 238 235 235 228 227 227 218 213 211 204 203 208 208 205 205 210 213 212 211 209
271 271 273 274 274 275 274 272 273 274 274 274 275 274 275 275 275 275 274 275 275 277 280 277 275 277 279 281 281 279 276 276 279 279 275 275 275 271 266 262 255 249 246 243 241 240 240 240 240 240 241 242 245 247 247 242 236 237 236 234 241 246 242 240 240 235 236 241 237 233 235 229 225 230 227 221 218 212 208 208 207 207 209 213 217 217 213 209
270 270 270 271 272 273 274 273 272 274 274 274 275 275 276 275 276 276 275 277 277 276 276 277 278 278 276 276 276 277 279 279 277 277 277 277 274 272 270 267 263 256 249 245 241 239 239 239 239 239 239 240 242 244 245 243 237 235 237 235 236 243 243 240 237 234 232 235 236 234 234 232 228 229 230 228 224 218 214 210 206 207 212 216 218 218 215 211
267 267 268 269 269 270 271 272 272 272 273 273 275 276 276 276 276 275 276 279 279 276 275 276 277 276 275 276 276 276 278 277 276 278 280 277 273 273 272 269 268 264 256 247 242 240 240 239 238 238 238 238 239 241 243 244 240 237 237 236 235 238 243 243 238 233 230 229 231 235 236 235 234 231 229 228 228 224 219 215 211 210 213 217 218 218 217 214
265 267 267 268 269 269 270 271 272 271 270 271 272 274 275 275 275 275 278 281 279 276 276 274 272 273 276 277 275 275 276 276 276 278 278 276 274 274 274 272 270 268 263 255 246 242 240 239 238 237 237 237 237 238 241 242 241 239 237 236 236 236 240 244 242 235 230 226 230 234 235 236 236 235 233 230 228 227 224 222 218 216 214 216 219 220 222 220
265 267 267 268 268 269 269 269 271 271 270 269 270 271 272 273 273 275 280 281 277 277 277 274 271 272 275 276 275 275 275 274 275 277 277 275 276 276 276 275 271 269 268 263 254 245 241 240 239 237 236 236 237 237 239 241 241 240 238 235 234 234 237 241 244 240 231 228 233 235 234 234 235 237 236 233 231 228 226 225 222 220 218 219 222 224 226 226
266 266 266 266 267 268 268 268 268 269 270 270 269 270 270 271 272 276 279 277 276 276 274 272 272 273 273 274 274 274 274 273 274 276 276 274 275 277 277 275 273 271 269 265 261 254 246 241 240 239 237 236 236 236 237 239 241 241 240 236 233 232 234 238 243 244 236 230 234 236 232 229 233 238 236 234 235 232 228 226 224 225 225 224 226 228 228 230
266 266 266 266 265 266 268 268 267 267 269 269 268 268 268 269 272 276 276 275 275 274 272 271 271 271 271 272 273 273 274 274 274 275 274 272 273 276 276 275 274 272 268 265 263 261 255 246 241 239 238 237 236 235 236 237 238 239 239 238 235 232 233 235 239 243 240 235 234 235 229 222 227 238 238 233 233 234 230 226 225 227 228 229 232 233 233 235
267 267 267 266 265 265 267 268 268 267 267 267 267 267 267 270 272 273 273 273 273 272 271 270 269 269 269 270 272 274 274 274 274 273 272 272 273 274 274 274 273 270 268 267 265 263 260 254 246 240 238 239 238 235 235 236 237 238 239 239 236 233 231 231 233 237 239 237 234 233 227 220 224 235 237 233 230 232 232 228 227 228 228 230 235 237 236 238
268 267 267 267 267 266 266 267 268 268 267 267 267 267 269 271 271 270 270 270 271 272 272 271 270 270 270 269 269 272 273 273 273 272 272 271 272 272 272 272 272 271 269 269 266 262 259 257 253 246 239 238 240 238 235 235 237 238 240 241 240 237 234 232 232 234 237 237 235 233 228 223 226 232 235 233 230 232 234 231 230 230 230 229 232 235 235 237
268 268 268 267 267 267 266 266 267 268 268 268 268 269 271 272 270 269 269 269 270 271 272 272 272 271 271 270 268 268 269 271 271 271 272 271 270 271 271 270 271 271 270 268 266 263 260 257 255 253 245 239 240 241 237 235 237 238 239 241 241 239 235 232 231 231 234 236 235 234 230 226 227 232 235 234 232 235 237 236 233 231 230 230 231 234 235 237
268 268 267 267 267 267 266 266 266 267 267 267 268 270 271 271 270 270 270 270 270 269 270 272 273 273 271 270 270 268 267 267 268 270 271 271 271 270 269 268 268 270 270 268 266 264 261 257 255 255 252 244 240 241 240 237 238 238 238 239 239 238 236 233 230 229 231 234 236 236 233 229 229 233 236 235 233 235 238 239 238 234 232 232 231 235 236 236
267 267 268 267 267 267 267 267 266 266 266 266 267 268 268 268 268 269 269 269 269 269 269 270 272 272 271 270 270 270 268 266 266 268 269 271 271 269 268 268 267 267 267 267 267 266 263 260 256 254 253 250 244 241 241 241 240 239 237 237 238 239 239 236 233 231 231 231 234 236 234 232 232 233 236 238 235 234 235 237 239 237 236 236 232 234 237 237
268 268 268 268 268 268 267 267 267 267 267 267 267 266 266 266 266 266 267 267 268 269 269 269 270 270 271 271 270 270 270 269 267 267 268 269 270 268 266 266 266 265 264 265 266 266 264 262 259 255 251 251 249 245 243 244 243 241 238 237 238 240 240 239 237 233 231 230 231 233 232 231 234 234 235 238 238 237 234 234 237 237 236 239 236 234 238 240
268 268 268 269 268 268 268 267 267 267 267 268 267 266 266 265 265 265 265 266 266 267 268 268 268 269 270 271 271 270 270 270 269 268 267 267 268 268 266 264 264 263 262 263 264 265 266 265 263 259 253 248 250 249 246 246 246 245 242 239 239 240 239 240 239 235 232 232 232 232 231 230 233 235 235 237 238 239 236 232 235 236 235 238 239 237 238 240
268 268 268 268 268 268 267 267 267 267 267 268 268 268 267 267 266 266 266 265 265 266 266 266 267 268 268 269 269 269 269 269 269 268 267 267 266 267 266 263 261 260 260 262 264 265 267 266 263 262 258 250 246 246 246 247 249 249 246 242 240 240 240 239 240 239 236 234 233 232 229 228 230 234 236 237 237 238 238 234 234 237 236 236 238 239 240 239
267 267 268 268 267 267 267 267 267 267 266 266 267 267 266 266 267 267 267 266 266 266 265 265 265 266 266 266 267 267 267 268 268 268 268 267 265 264 265 263 260 258 259 261 262 262 263 265 265 265 264 257 247 242 242 247 252 252 251 249 244 241 241 240 241 241 238 236 235 232 227 225 228 232 234 237 238 237 238 236 234 237 238 237 235 236 239 240
267 267 267 267 267 266 266 266 266 265 265 264 264 264 265 265 265 266 266 267 267 266 266 266 265 265 265 265 265 265 265 266 267 267 267 266 266 264 264 264 262 260 259 260 261 260 261 265 268 266 263 262 256 246 240 242 251 255 254 255 251 244 242 242 241 240 239 237 236 234 227 223 228 233 233 236 238 238 238 236 235 236 238 239 237 232 233 239
267 266 266 266 266 266 265 265 265 264 264 263 262 262 263 263 263 263 263 264 265 265 266 266 265 265 264 264 263 263 263 265 265 266 266 266 266 266 264 263 263 262 260 259 259 259 259 262 265 265 264 264 262 255 245 239 244 253 257 256 255 250 244 242 241 240 239 238 238 237 231 225 229 234 234 234 237 240 240 238 236 237 237 238 239 236 230 232
266 266 265 266 266 266 266 265 264 264 263 263 262 261 261 261 261 261 261 262 263 264 264 265 265 265 264 263 262 262 263 264 264 265 266 266 266 265 263 261 261 262 262 260 259 260 260 259 261 266 267 267 265 263 257 246 238 242 252 253 254 253 248 245 243 241 239 239 240 239 234 229 230 234 236 236 237 239 241 241 238 238 239 238 239 240 235 232
267 266 266 266 266 267 266 266 265 264 263 263 262 261 260 260 260 260 261 261 261 261 262 262 263 263 263 263 263 262 262 263 263 263 264 264 264 263 263 262 262 263 263 263 261 261 261 260 260 264 267 267 265 263 262 257 244 235 241 251 255 257 254 249 246 243 242 241 241 241 238 232 230 233 236 238 238 237 238 240 239 239 241 241 240 241 240 237
269 268 267 267 267 267 267 267 266 265 264 263 263 262 261 260 260 260 260 259 259 259 259 259 259 260 261 262 262 262 262 262 262 262 262 263 263 263 264 265 265 264 263 262 261 260 261 263 262 262 263 264 263 262 261 263 257 241 234 244 255 257 256 253 249 247 247 243 241 242 241 237 232 232 234 237 239 238 237 238 238 239 241 243 242 243 243 241
271 271 270 269 269 269 268 268 267 266 265 264 263 262 261 260 259 259 258 258 258 258 257 257 258 258 259 260 261 261 261 260 261 261 261 262 263 264 265 266 266 265 263 260 259 259 261 264 263 260 259 259 260 261 261 262 262 253 237 238 250 254 256 257 252 249 250 247 242 242 243 240 235 233 234 236 238 239 239 238 237 237 239 242 243 243 244 245
273 272 271 270 269 269 269 268 268 267 266 265 264 263 261 260 259 258 258 258 257 257 256 256 256 257 257 258 258 259 259 259 259 260 260 260 261 262 262 263 263 263 262 260 258 258 260 263 264 261 257 256 257 259 260 261 263 261 249 240 245 251 254 258 256 251 250 250 247 245 245 242 239 235 235 236 236 237 239 240 239 238 238 241 243 244 245 247
273 272 271 270 269 269 268 267 267 267 266 265 264 263 262 260 259 258 257 257 256 256 256 255 255 256 256 256 256 256 257 257 257 258 259 259 258 258 258 258 260 260 260 260 259 259 260 262 263 262 258 257 257 258 259 260 261 263 258 248 246 250 252 255 257 255 251 250 249 248 247 245 242 238 236 237 237 236 238 240 241 240 239 240 243 244 244 245
273 272 271 270 269 268 267 267 266 266 265 264 263 262 261 260 259 257 257 256 256 255 255 255 254 254 254 254 254 254 255 255 255 256 257 257 256 256 256 256 257 257 257 257 258 258 259 259 261 261 261 260 259 257 257 258 259 261 261 256 249 250 251 251 254 258 257 251 248 248 247 247 245 241 237 237 238 238 237 238 240 240 240 240 242 244 243 244
273 272 271 270 269 268 267 266 265 264 264 263 262 261 260 259 258 257 256 255 254 254 254 253 252 252 252 252 252 252 252 253 253 253 254 255 255 255 254 254 255 255 254 255 255 256 257 257 257 258 259 260 258 256 255 255 257 260 263 261 255 253 254 253 253 258 260 256 250 248 246 245 246 244 239 236 238 239 238 238 239 240 240 240 241 244 245 244
Height
10992 10992 10993 10993 10993 10994 10994 10995 10995 10995 10996 10996 10996 10997 10997 10997 10998 10998 10998 10998 10999 10999 10999 10998 10998 10997 10997 10996 10995 10995 10996 10996 10996 10996 10996 10995 10995 10995 10994 10993 10992 10991 10990 10990 10990 10989 10989 10988 10988 10987 10987 10987 10987 10986 10985 10985 10986 10985 10985 10985 10985 10985 10986 10986 10986 10986 10986 10985 10985 10986 10986 10987 10987 10988 10989 10990 10992 10993 10994 10994 10994 10995 10996 10996 10997 10998 10999 10999
10989 10989 10990 10990 10990 10991 10991 10992 10992 10993 10993 10994 10994 10995 10995 10995 10996 10996 10997 10997 10997 10997 10997 10998 10997 10997 10996 10995 10994 10994 10994 10995 10995 10995 10995 10995 10995 10995 10994 10994 10993 10992 10991 10990 10990 10990 10989 10989 10988 10988 10987 10987 10986 10986 10984 10984 10984 10983 10983 10983 10982 10983 10983 10983 10983 10983 10983 10983 10983 10983 10984 10985 10985 10986 10986 10987 10988 10990 10991 10991 10992 10993 10993 10994 10995 10996 10997 10997
10986 10986 10987 10987 10987 10988 10988 10989 10989 10990 10991 10991 10992 10992 10993 10993 10994 10994 10995 10995 10995 10996 10996 10996 10996 10996 10995 10995 10993 10993 10992 10993 10994 10994 10994 10995 10995 10994 10994 10994 10993 10992 10991 10990 10990 10990 10990 10989 10988 10988 10988 10987 10986 10985 10984 10982 10982 10981 10981 10980 10980 10980 10980 10981 10981 10982 10981 10981 10981 10981 10982 10983 10983 10983 10984 10985 10985 10987 10987 10988 10989 10991 10991 10992 10993 10994 10995 10995
10984 10984 10984 10984 10985 10985 10985 10986 10986 10987 10987 10988 10989 10989 10990 10991 10991 10992 10992 10993 10993 10994 10994 10994 10995 10995 10995 10994 10992 10991 10990 10991 10993 10992 10992 10993 10994 10994 10993 10993 10993 10992 10991 10990 10989 10989 10989 10989 10988 10988 10987 10987 10986 10985 10984 10982 10980 10979 10978 10978 10977 10977 10978 10979 10980 10981 10979 10979 10979 10980 10980 10980 10981 10981 10982 10982 10983 10984 10985 10985 10987 10988 10989 10990 10991 10992 10992 10993
10981 10981 10981 10982 10982 10982 10983 10983 10983 10984 10985 10985 10986 10986 10987 10988 10988 10989 10990 10991 10991 10992 10992 10992 10993 10993 10993 10993 10992 10990 10988 10989 10990 10990 10991 10992 10992 10993 10993 10993 10992 10992 10991 10990 10989 10988 10988 10988 10987 10987 10986 10986 10985 10985 10983 10981 10979 10977 10976 10975 10975 10976 10977 10978 10979 10979 10977 10977 10978 10979 10979 10978 10979 10979 10980 10981 10981 10982 10982 10983 10984 10985 10987 10988 10989 10990 10990 10991
10978 10978 10978 10978 10979 10979 10979 10980 10980 10981 10981 10982 10982 10983 10984 10984 10985 10986 10987 10988 10988 10989 10990 10990 10990 10991 10991 10991 10991 10989 10986 10986 10988 10988 10989 10990 10989 10990 10991 10991 10991 10991 10991 10990 10988 10987 10987 10987 10986 10986 10985 10985 10984 10983 10982 10980 10978 10976 10974 10973 10973 10974 10976 10976 10976 10977 10976 10976 10977 10977 10976 10976 10977 10977 10978 10979 10979 10980 10980 10981 10982 10983 10984 10986 10987 10988 10989 10990
10974 10974 10974 10975 10975 10975 10975 10976 10976 10977 10978 10978 10979 10980 10980 10981 10982 10982 10983 10984 10985 10986 10987 10987 10988 10988 10988 10989 10989 10988 10985 10983 10985 10987 10987 10988 10987 10988 10989 10990 10990 10990 10990 10989 10988 10987 10986 10985 10985 10985 10984 10984 10983 10981 10980 10979 10977 10975 10973 10972 10971 10972 10974 10974 10975 10975 10976 10975 10975 10975 10974 10974 10975 10975 10977 10977 10977 10978 10979 10979 10981 10981 10983 10984 10985 10987 10987 10988
10971 10971 10971 10971 10971 10971 10972 10972 10973 10973 10974 10975 10975 10976 10977 10978 10978 10979 10980 10980 10982 10983 10984 10984 10985 10985 10986 10986 10986 10986 10985 10981 10982 10985 10985 10985 10985 10986 10986 10987 10988 10988 10988 10988 10987 10986 10985 10985 10984 10984 10983 10983 10982 10981 10980 10979 10977 10975 10974 10972 10970 10971 10972 10973 10974 10974 10974 10974 10974 10973 10973 10973 10973 10973 10975 10976 10976 10977 10978 10978 10979 10980 10982 10983 10984 10985 10986 10987
10967 10967 10967 10967 10967 10967 10968 10968 10969 10969 10970 10970 10971 10972 10973 10974 10974 10975 10976 10977 10977 10978 10980 10981 10981 10982 10983 10983 10983 10984 10983 10980 10980 10982 10983 10982 10983 10983 10983 10984 10985 10986 10986 10986 10986 10985 10985 10984 10984 10983 10982 10982 10982 10981 10980 10979 10978 10976 10974 10972 10971 10971 10971 10971 10972 10972 10972 10972 10972 10972 10972 10972 10972 10972 10974 10975 10975 10976 10977 10977 10978 10980 10981 10982 10983 10984 10985 10985
10962 10962 10962 10963 10963 10963 10963 10964 10964 10965 10965 10966 10966 10967 10968 10969 10970 10971 10972 10973 10973 10974 10975 10976 10977 10978 10979 10980 10980 10981 10980 10979 10978 10979 10979 10979 10980 10981 10980 10981 10982 10983 10984 10984 10984 10984 10984 10983 10983 10983 10982 10982 10981 10981 10980 10979 10978 10977 10975 10974 10972 10972 10971 10971 10970 10970 10970 10971 10971 10971 10971 10971 10971 10972 10973 10974 10974 10975 10976 10977 10978 10979 10980 10981 10982 10983 10984 10985
10958 10958 10958 10958 10958 10958 10959 10959 10959 10960 10960 10961 10961 10962 10963 10964 10965 10966 10967 10968 10969 10970 10971 10971 10972 10973 10975 10976 10977 10978 10977 10976 10976 10977 10977 10976 10977 10978 10978 10978 10979 10979 10981 10982 10983 10983 10982 10982 10982 10982 10981 10981 10981 10980 10980 10979 10978 10977 10976 10975 10974 10973 10971 10971 10970 10969 10970 10970 10971 10971 10970 10971 10971 10971 10972 10973 10973 10974 10975 10976 10977 10978 10979 10981 10982 10982 10983 10984
10953 10953 10953 10953 10953 10953 10954 10954 10954 10955 10955 10956 10956 10957 10958 10959 10960 10962 10962 10963 10964 10965 10966 10966 10967 10968 10969 10971 10972 10973 10973 10973 10973 10974 10974 10973 10973 10974 10975 10975 10976 10976 10977 10978 10980 10981 10981 10981 10980 10980 10980 10980 10980 10979 10979 10978 10978 10977 10976 10975 10974 10973 10971 10970 10970 10969 10970 10970 10970 10970 10970 10970 10970 10970 10971 10972 10973 10974 10975 10976 10977 10977 10979 10980 10981 10982 10983 10984
10948 10948 10948 10948 10948 10948 10948 10948 10949 10949 10950 10950 10951 10952 10953 10954 10955 10956 10957 10958 10959 10960 10961 10961 10962 10963 10964 10965 10966 10968 10969 10969 10970 10970 10971 10971 10969 10970 10972 10973 10973 10973 10973 10975 10977 10978 10979 10979 10978 10979 10978 10979 10979 10978 10978 10978 10977 10976 10976 10975 10974 10973 10972 10971 10970 10969 10970 10970 10970 10970 10970 10970 10970 10970 10971 10972 10973 10974 10975 10976 10977 10978 10979 10980 10981 10982 10982 10983
10943 10943 10943 10942 10942 10942 10942 10943 10943 10943 10944 10945 10945 10946 10947 10948 10949 10950 10952 10953 10954 10955 10956 10957 10957 10957 10959 10960 10960 10962 10963 10964 10965 10965 10966 10967 10967 10966 10967 10970 10970 10970 10970 10971 10973 10975 10976 10976 10977 10977 10976 10977 10977 10977 10977 10977 10977 10977 10976 10975 10974 10973 10972 10971 10970 10970 10970 10969 10969 10970 10970 10970 10969 10970 10971 10972 10973 10974 10975 10976 10977 10978 10978 10979 10980 10981 10982 10982
10937 10937 10937 10937 10936 10936 10937 10937 10937 10937 10938 10938 10939 10940 10940 10941 10942 10944 10945 10946 10947 10949 10950 10951 10951 10951 10953 10954 10954 10955 10957 10959 10960 10960 10961 10962 10963 10962 10963 10965 10967 10967 10967 10967 10969 10971 10973 10974 10974 10974 10975 10975 10974 10975 10975 10976 10976 10976 10976 10975 10974 10974 10973 10972 10971 10970 10969 10969 10969 10969 10970 10970 10970 10970 10971 10972 10973 10974 10975 10976 10977 10977 10978 10979 10980 10981 10981 10981
10931 10931 10931 10931 10930 10930 10931 10931 10931 10931 10931 10932 10933 10933 10934 10935 10936 10937 10937 10939 10941 10942 10943 10944 10944 10945 10947 10948 10949 10949 10950 10954 10955 10955 10956 10957 10958 10959 10959 10960 10962 10964 10964 10964 10965 10967 10969 10971 10971 10972 10973 10973 10972 10973 10973 10973 10974 10975 10975 10975 10974 10973 10973 10972 10971 10970 10969 10969 10969 10969 10969 10969 10970 10970 10971 10973 10974 10975 10975 10976 10977 10977 10978 10978 10979 10980 10981 10981
10926 10925 10925 10925 10925 10924 10925 10925 10925 10925 10926 10926 10927 10927 10927 10928 10930 10930 10930 10932 10934 10934 10936 10936 10936 10939 10940 10940 10944 10944 10943 10947 10949 10949 10950 10952 10953 10954 10954 10955 10957 10960 10961 10961 10962 10963 10965 10967 10968 10969 10971 10971 10970 10970 10969 10970 10973 10973 10974 10974 10974 10973 10972 10972 10971 10970 10970 10969 10969 10969 10969 10969 10970 10971 10971 10973 10974 10974 10975 10976 10977 10977 10977 10978 10979 10980 10980 10980
10920 10920 10920 10920 10919 10919 10919 10920 10920 10920 10921 10921 10921 10922 10922 10922 10924 10924 10924 10926 10927 10928 10929 10928 10929 10932 10932 10932 10937 10937 10936 10940 10943 10944 10944 10946 10947 10948 10950 10950 10952 10954 10957 10958 10958 10959 10960 10962 10965 10967 10968 10968 10967 10966 10966 10968 10972 10971 10972 10973 10973 10973 10972 10972 10971 10970 10970 10969 10969 10969 10969 10969 10970 10971 10972 10973 10974 10974 10975 10975 10976 10976 10977 10978 10979 10979 10980 10980
10915 10915 10915 10915 10915 10914 10914 10915 10915 10915 10916 10917 10917 10918 10918 10917 10919 10919 10919 10921 10922 10922 10923 10922 10922 10925 10925 10925 10928 10929 10930 10934 10936 10937 10938 10940 10941 10943 10944 10946 10947 10949 10951 10953 10954 10955 10956 10959 10962 10963 10963 10963 10964 10963 10963 10966 10969 10969 10969 10971 10971 10972 10971 10972 10971 10970 10970 10970 10969 10969 10969 10970 10970 10971 10972 10972 10974 10975 10975 10975 10976 10976 10977 10978 10979 10979 10980 10980
10910 10910 10910 10910 10910 10910 10909 10910 10910 10910 10911 10912 10912 10913 10913 10913 10915 10915 10914 10916 10917 10917 10918 10916 10916 10918 10920 10918 10919 10922 10924 10926 10929 10930 10932 10933 10935 10937 10938 10940 10942 10944 10945 10947 10949 10951 10954 10957 10958 10957 10957 10959 10960 10961 10961 10964 10966 10966 10967 10968 10969 10970 10971 10971 10971 10970 10970 10970 10970 10970 10969 10970 10970 10971 10972 10972 10974 10975 10975 10975 10976 10977 10978 10978 10979 10980 10980 10981
10905 10905 10905 10905 10905 10905 10904 10904 10905 10906 10906 10907 10908 10909 10908 10908 10911 10911 10910 10911 10912 10913 10913 10912 10911 10911 10914 10914 10912 10916 10917 10917 10922 10924 10924 10925 10928 10930 10932 10935 10937 10938 10939 10941 10945 10948 10952 10953 10951 10949 10951 10954 10956 10958 10959 10961 10963 10963 10964 10966 10967 10968 10969 10969 10970 10970 10970 10970 10969 10970 10970 10970 10971 10971 10972 10973 10974 10975 10975 10976 10977 10978 10978 10979 10980 10980 10981 10982
10899 10899 10900 10900 10901 10901 10900 10899 10900 10901 10901 10902 10902 10904 10903 10904 10907 10907 10907 10906 10906 10910 10908 10907 10908 10905 10907 10910 10908 10910 10910 10911 10916 10917 10917 10918 10921 10924 10926 10929 10931 10931 10933 10938 10940 10943 10947 10946 10942 10942 10945 10948 10953 10955 10957 10959 10960 10961 10962 10963 10965 10966 10967 10968 10968 10969 10969 10969 10969 10969 10970 10970 10971 10972 10972 10973 10973 10974 10975 10976 10977 10978 10979 10980 10980 10981 10982 10983
10894 10894 10894 10894 10895 10896 10895 10894 10895 10896 10896 10896 10897 10897 10898 10899 10901 10902 10903 10902 10901 10905 10905 10904 10904 10900 10902 10905 10905 10905 10904 10906 10910 10909 10910 10912 10915 10917 10920 10921 10923 10926 10929 10932 10934 10937 10941 10939 10935 10938 10941 10944 10949 10952 10955 10957 10958 10959 10959 10960 10961 10962 10964 10965 10966 10967 10968 10968 10968 10969 10969 10970 10971 10971 10972 10972 10973 10974 10975 10976 10977 10978 10979 10980 10981 10982 10982 10983
10890 10888 10887 10888 10889 10890 10890 10889 10890 10891 10891 10891 10891 10890 10893 10895 10896 10897 10899 10898 10895 10897 10902 10901 10898 10896 10898 10901 10902 10901 10900 10902 10903 10902 10905 10907 10908 10912 10913 10914 10918 10921 10922 10924 10927 10931 10933 10932 10931 10934 10937 10940 10943 10948 10952 10954 10955 10956 10956 10956 10957 10959 10960 10961 10963 10965 10967 10967 10967 10968 10969 10969 10970 10971 10972 10972 10973 10974 10975 10976 10977 10977 10978 10979 10981 10982 10983 10983
10885 10883 10882 10882 10882 10883 10885 10884 10884 10885 10885 10885 10884 10884 10888 10890 10890 10892 10894 10896 10892 10889 10896 10898 10893 10891 10894 10897 10898 10898 10898 10897 10895 10898 10901 10900 10902 10907 10908 10908 10911 10913 10914 10917 10922 10926 10926 10925 10927 10931 10933 10935 10937 10942 10947 10949 10951 10953 10954 10952 10952 10955 10957 10958 10960 10962 10965 10966 10966 10967 10968 10969 10970 10970 10971 10972 10973 10974 10974 10975 10976 10976 10977 10978 10980 10981 10982 10983
10879 10879 10877 10876 10877 10876 10878 10879 10877 10879 10880 10878 10877 10879 10882 10882 10885 10887 10888 10892 10890 10884 10888 10892 10888 10886 10889 10892 10893 10894 10895 10892 10890 10895 10897 10894 10897 10902 10902 10902 10904 10905 10907 10912 10917 10920 10919 10918 10922 10925 10927 10929 10932 10936 10940 10944 10948 10950 10950 10948 10947 10950 10953 10954 10956 10959 10962 10963 10964 10966 10967 10967 10969 10969 10970 10971 10972 10973 10974 10975 10975 10976 10976 10977 10979 10980 10981 10982
10872 10873 10871 10870 10871 10869 10870 10872 10872 10872 10874 10871 10870 10873 10876 10876 10879 10881 10882 10887 10886 10881 10882 10883 10882 10883 10884 10886 10887 10887 10889 10888 10888 10890 10891 10891 10892 10894 10896 10896 10898 10899 10901 10906 10911 10913 10911 10912 10917 10920 10922 10925 10928 10930 10933 10937 10943 10945 10944 10943 10944 10945 10948 10950 10951 10955 10959 10959 10962 10965 10965 10966 10968 10968 10969 10970 10971 10972 10973 10974 10974 10975 10976 10977 10978 10979 10980 10980
10865 10866 10866 10863 10864 10864 10861 10863 10866 10866 10866 10865 10864 10867 10869 10870 10872 10874 10876 10881 10881 10878 10878 10875 10874 10876 10878 10881 10881 10881 10883 10885 10885 10885 10886 10889 10888 10887 10890 10891 10892 10895 10897 10901 10904 10903 10903 10907 10911 10913 10917 10921 10923 10924 10924 10929 10937 10939 10936 10939 10941 10940 10942 10945 10947 10951 10954 10956 10959 10963 10964 10965 10966 10967 10968 10969 10970 10971 10971 10972 10973 10974 10975 10976 10977 10977 10978 10979
10857 10858 10859 10856 10856 10858 10854 10853 10859 10859 10858 10859 10858 10860 10862 10863 10866 10867 10871 10876 10874 10871 10873 10872 10869 10868 10870 10875 10875 10875 10877 10879 10880 10881 10883 10884 10883 10883 10885 10886 10887 10889 10892 10896 10897 10896 10897 10900 10903 10907 10912 10914 10915 10917 10917 10922 10930 10931 10930 10935 10937 10937 10938 10940 10944 10948 10950 10953 10957 10960 10962 10964 10964 10965 10967 10968 10968 10969 10969 10970 10972 10973 10974 10975 10976 10976 10976 10977
10849 10850 10851 10850 10848 10849 10847 10846 10849 10850 10851 10852 10852 10853 10855 10856 10858 10860 10866 10870 10865 10862 10866 10867 10864 10862 10864 10868 10869 10868 10870 10872 10874 10877 10879 10878 10879 10880 10880 10882 10884 10884 10886 10890 10892 10891 10891 10893 10897 10902 10905 10906 10908 10910 10912 10916 10921 10922 10924 10930 10932 10933 10935 10935 10939 10943 10946 10952 10956 10958 10960 10961 10963 10964 10965 10966 10966 10967 10968 10970 10971 10972 10973 10974 10974 10975 10975 10976
10840 10841 10842 10842 10841 10840 10838 10840 10842 10840 10841 10845 10845 10845 10848 10849 10851 10856 10862 10861 10855 10856 10858 10857 10857 10858 10860 10861 10861 10863 10864 10864 10866 10871 10875 10873 10873 10877 10877 10878 10879 10879 10881 10884 10885 10885 10885 10888 10891 10894 10897 10899 10901 10905 10907 10909 10912 10914 10919 10924 10926 10929 10931 10932 10935 10939 10945 10951 10953 10954 10956 10958 10961 10961 10962 10963 10963 10965 10966 10967 10969 10970 10971 10972 10973 10973 10974 10975
10831 10832 10832 10832 10833 10831 10828 10831 10834 10831 10831 10835 10836 10838 10840 10842 10846 10853 10855 10849 10846 10848 10846 10846 10850 10853 10854 10854 10854 10856 10857 10858 10859 10863 10868 10868 10868 10871 10872 10873 10875 10875 10877 10878 10878 10880 10882 10884 10885 10887 10890 10893 10895 10898 10901 10904 10905 10907 10912 10916 10920 10924 10927 10929 10932 10935 10942 10947 10948 10948 10950 10954 10958 10957 10958 10960 10961 10962 10963 10964 10966 10968 10969 10970 10971 10971 10973 10974
10822 10822 10821 10821 10823 10823 10819 10820 10824 10824 10823 10823 10827 10830 10831 10835 10843 10847 10844 10839 10838 10836 10833 10838 10843 10845 10848 10849 10847 10848 10851 10852 10852 10854 10861 10863 10863 10866 10867 10868 10870 10871 10871 10872 10873 10876 10878 10880 10880 10881 10883 10884 10887 10891 10894 10897 10898 10899 10902 10907 10914 10919 10922 10927 10930 10931 10936 10940 10942 10942 10944 10949 10953 10953 10953 10956 10957 10958 10960 10962 10963 10964 10966 10967 10968 10970 10972 10972
10811 10812 10811 10809 10811 10814 10811 10809 10811 10814 10813 10813 10816 10820 10822 10831 10839 10837 10833 10831 10828 10824 10822 10827 10834 10837 10841 10843 10841 10841 10843 10845 10844 10845 10852 10856 10858 10861 10862 10861 10864 10866 10866 10866 10870 10871 10872 10875 10875 10874 10876 10877 10879 10883 10887 10888 10890 10893 10895 10899 10906 10913 10918 10923 10925 10926 10929 10931 10933 10935 10939 10944 10947 10948 10947 10949 10952 10954 10956 10959 10960 10962 10963 10965 10966 10968 10969 10970
10800 10801 10800 10797 10798 10802 10803 10800 10799 10801 10803 10804 10805 10810 10817 10826 10828 10823 10823 10822 10818 10815 10812 10814 10823 10829 10833 10836 10837 10835 10834 10836 10836 10836 10843 10850 10852 10854 10856 10855 10856 10860 10861 10862 10864 10866 10867 10869 10869 10868 10872 10873 10872 10876 10880 10883 10886 10889 10890 10892 10901 10910 10914 10917 10919 10921 10922 10923 10927 10931 10936 10940 10941 10942 10941 10944 10949 10951 10953 10955 10957 10959 10961 10962 10964 10964 10966 10968
10788 10789 10786 10785 10786 10789 10790 10791 10789 10789 10792 10793 10795 10803 10811 10814 10812 10810 10812 10811 10809 10808 10804 10803 10812 10820 10823 10825 10828 10831 10829 10827 10826 10827 10833 10841 10845 10847 10849 10850 10849 10852 10856 10857 10857 10859 10862 10864 10863 10863 10867 10869 10868 10869 10873 10878 10880 10882 10885 10890 10896 10900 10903 10907 10910 10913 10913 10916 10924 10928 10931 10935 10937 10938 10938 10941 10946 10948 10950 10952 10953 10956 10958 10959 10960 10961 10962 10964
10777 10776 10772 10770 10773 10775 10777 10780 10778 10777 10779 10781 10787 10796 10800 10799 10798 10799 10799 10798 10797 10797 10797 10797 10801 10806 10811 10813 10815 10820 10823 10821 10818 10820 10825 10830 10837 10841 10841 10843 10843 10844 10847 10849 10850 10853 10856 10858 10858 10859 10862 10864 10864 10864 10867 10872 10873 10874 10879 10883 10883 10884 10891 10899 10901 10904 10907 10914 10921 10923 10926 10930 10932 10934 10935 10937 10941 10944 10947 10948 10949 10952 10954 10955 10957 10957 10958 10959
10765 10764 10758 10753 10758 10762 10764 10767 10765 10764 10765 10770 10779 10786 10786 10786 10786 10785 10785 10785 10785 10785 10788 10793 10793 10792 10796 10802 10805 10806 10808 10812 10814 10814 10816 10820 10828 10833 10833 10835 10837 10838 10838 10839 10843 10846 10848 10852 10854 10855 10857 10857 10858 10861 10864 10865 10865 10867 10870 10871 10872 10877 10885 10890 10894 10899 10905 10912 10915 10915 10920 10925 10928 10931 10933 10932 10935 10938 10940 10943 10945 10948 10950 10950 10952 10953 10953 10955
10753 10753 10744 10737 10742 10749 10751 10752 10751 10750 10752 10758 10767 10770 10770 10772 10772 10772 10772 10772 10773 10773 10777 10783 10782 10781 10783 10788 10794 10794 10792 10797 10805 10807 10808 10812 10818 10823 10826 10827 10828 10830 10830 10830 10835 10838 10839 10844 10848 10849 10852 10852 10853 10859 10861 10859 10857 10857 10860 10865 10869 10874 10878 10881 10886 10894 10899 10903 10906 10907 10914 10921 10924 10927 10928 10927 10929 10930 10933 10937 10939 10943 10946 10945 10947 10949 10949 10951
10739 10741 10731 10721 10727 10733 10734 10736 10737 10738 10739 10744 10750 10752 10754 10756 10756 10757 10759 10759 10760 10761 10766 10770 10768 10770 10775 10775 10778 10782 10780 10782 10790 10795 10799 10804 10809 10813 10816 10819 10820 10821 10822 10822 10826 10828 10830 10837 10841 10842 10845 10848 10851 10855 10855 10852 10851 10850 10854 10861 10865 10867 10870 10871 10875 10885 10892 10895 10899 10903 10911 10919 10921 10921 10921 10921 10922 10923 10926 10931 10934 10937 10940 10941 10942 10945 10946 10947
10724 10726 10717 10705 10709 10716 10718 10720 10724 10725 10726 10729 10734 10734 10736 10738 10739 10741 10743 10744 10747 10749 10752 10755 10756 10759 10765 10764 10764 10767 10767 10769 10774 10780 10787 10794 10799 10803 10806 10810 10813 10812 10812 10816 10819 10821 10822 10828 10832 10833 10837 10845 10848 10848 10847 10846 10845 10846 10849 10854 10858 10860 10862 10864 10868 10878 10885 10889 10892 10897 10905 10913 10914 10913 10913 10914 10915 10916 10919 10925 10928 10930 10933 10935 10938 10940 10941 10942
10708 10711 10703 10686 10686 10699 10703 10705 10709 10709 10710 10716 10718 10716 10718 10720 10723 10726 10726 10726 10732 10736 10735 10739 10745 10747 10749 10751 10753 10751 10751 10755 10760 10765 10773 10781 10787 10793 10796 10797 10802 10804 10804 10808 10813 10814 10812 10815 10824 10828 10830 10836 10840 10841 10844 10843 10840 10842 10845 10848 10851 10854 10856 10859 10864 10869 10874 10879 10883 10887 10896 10906 10907 10905 10905 10906 10907 10909 10912 10917 10922 10924 10925 10928 10932 10935 10935 10937
10692 10695 10688 10667 10663 10679 10687 10690 10693 10690 10692 10700 10700 10698 10701 10705 10708 10711 10711 10710 10714 10718 10718 10723 10730 10732 10733 10737 10738 10736 10735 10739 10748 10754 10759 10765 10772 10782 10787 10786 10789 10795 10797 10800 10805 10808 10805 10805 10814 10823 10823 10825 10830 10834 10840 10841 10838 10839 10843 10843 10843 10847 10852 10853 10855 10857 10861 10868 10873 10877 10889 10900 10902 10899 10898 10899 10900 10901 10906 10912 10916 10917 10918 10919 10922 10926 10930 10932
10673 10676 10670 10651 10643 10655 10666 10673 10676 10669 10670 10679 10682 10683 10685 10689 10694 10695 10694 10694 10698 10700 10701 10705 10712 10713 10715 10718 10718 10720 10722 10725 10734 10742 10745 10751 10759 10767 10775 10777 10777 10782 10789 10793 10796 10798 10801 10801 10803 10811 10817 10819 10821 10827 10834 10838 10837 10836 10837 10836 10836 10839 10842 10843 10845 10847 10853 10861 10865 10869 10883 10896 10896 10891 10889 10892 10894 10896 10901 10906 10909 10909 10909 10912 10913 10917 10924 10928
10652 10655 10652 10634 10624 10632 10643 10651 10653 10649 10649 10655 10661 10667 10670 10672 10676 10676 10676 10681 10684 10684 10685 10690 10695 10693 10692 10696 10700 10707 10712 10712 10720 10729 10731 10738 10747 10750 10758 10765 10766 10770 10778 10785 10786 10787 10793 10797 10796 10800 10809 10814 10816 10819 10824 10827 10830 10830 10830 10829 10830 10831 10832 10835 10837 10840 10848 10856 10856 10861 10876 10887 10885 10882 10883 10886 10889 10892 10894 10897 10900 10901 10903 10906 10908 10909 10916 10922
10629 10633 10630 10618 10608 10611 10618 10625 10627 10627 10628 10631 10638 10648 10654 10654 10657 10660 10662 10665 10667 10667 10669 10674 10676 10671 10669 10676 10685 10696 10701 10699 10705 10715 10719 10724 10732 10734 10739 10749 10757 10762 10768 10774 10775 10776 10780 10788 10793 10796 10800 10806 10809 10810 10810 10812 10819 10825 10826 10825 10825 10825 10826 10829 10832 10838 10845 10848 10847 10853 10865 10873 10874 10876 10878 10879 10880 10884 10885 10885 10890 10896 10897 10898 10901 10904 10909 10914
10604 10608 10606 10599 10594 10593 10593 10597 10600 10602 10604 10608 10614 10625 10633 10636 10639 10642 10641 10641 10644 10647 10649 10653 10655 10653 10654 10662 10670 10679 10685 10684 10689 10700 10706 10709 10717 10722 10725 10735 10748 10754 10758 10762 10763 10763 10767 10776 10788 10793 10793 10795 10800 10801 10800 10801 10808 10817 10822 10822 10820 10819 10821 10824 10828 10835 10837 10836 10843 10849 10852 10857 10866 10870 10871 10869 10869 10873 10875 10876 10882 10888 10889 10889 10894 10899 10902 10905
10576 10579 10578 10575 10575 10574 10570 10568 10569 10573 10577 10581 10587 10598 10609 10614 10616 10618 10616 10615 10619 10624 10627 10631 10635 10638 10644 10649 10653 10659 10666 10669 10672 10681 10691 10698 10707 10715 10718 10722 10733 10740 10743 10750 10751 10749 10754 10765 10776 10783 10785 10787 10789 10791 10793 10793 10797 10805 10813 10817 10815 10814 10817 10820 10825 10830 10826 10827 10839 10842 10836 10843 10857 10862 10862 10861 10861 10863 10865 10867 10874 10880 10881 10882 10886 10891 10894 10896
10545 10547 10547 10546 10548 10549 10546 10541 10539 10541 10547 10554 10558 10565 10578 10586 10587 10590 10592 10591 10592 10597 10602 10607 10614 10623 10631 10635 10635 10639 10648 10655 10657 10662 10677 10689 10697 10705 10707 10709 10717 10722 10726 10735 10740 10738 10744 10754 10762 10770 10776 10778 10779 10783 10785 10786 10787 10793 10801 10809 10811 10811 10813 10815 10818 10821 10820 10823 10831 10830 10827 10835 10847 10852 10852 10851 10851 10855 10856 10859 10866 10872 10874 10875 10878 10884 10888 10890
10514 10514 10515 10515 10516 10518 10518 10515 10511 10510 10516 10524 10528 10531 10541 10551 10556 10561 10563 10563 10566 10570 10574 10583 10596 10606 10612 10615 10616 10620 10630 10641 10644 10648 10661 10676 10685 10689 10693 10697 10702 10706 10709 10718 10725 10730 10736 10744 10750 10757 10763 10768 10773 10775 10775 10777 10780 10782 10789 10800 10806 10807 10807 10809 10810 10812 10814 10818 10821 10820 10823 10830 10837 10840 10840 10839 10840 10847 10851 10853 10857 10862 10866 10870 10873 10876 10881 10883
10483 10481 10480 10482 10485 10486 10485 10485 10484 10483 10486 10491 10495 10499 10505 10513 10521 10528 10532 10535 10540 10544 10547 10558 10575 10584 10589 10594 10597 10601 10612 10622 10630 10637 10646 10660 10671 10675 10679 10686 10690 10690 10695 10702 10709 10716 10725 10733 10740 10745 10750 10760 10768 10767 10766 10769 10770 10772 10782 10794 10800 10799 10798 10802 10805 10806 10807 10810 10811 10813 10820 10825 10824 10824 10827 10829 10832 10838 10844 10845 10847 10852 10859 10866 10867 10866 10871 10876
10453 10450 10448 10452 10456 10454 10453 10455 10456 10456 10458 10458 10461 10467 10473 10479 10487 10495 10501 10505 10509 10517 10522 10530 10546 10559 10565 10570 10574 10581 10592 10602 10614 10625 10633 10644 10657 10661 10665 10673 10676 10676 10681 10687 10693 10701 10710 10720 10729 10733 10740 10752 10757 10757 10758 10755 10755 10768 10783 10787 10786 10787 10790 10794 10800 10801 10799 10799 10802 10808 10815 10815 10809 10807 10815 10823 10825 10828 10834 10836 10838 10844 10852 10860 10861 10858 10860 10867